Year,Month,Day,Hour,Minute,Value (Times are PST for temperature in C)
2015,06,26,00,00,17.90
2015,06,26,00,01,17.90
2015,06,26,00,02,17.90
2015,06,26,00,03,17.90
2015,06,26,00,04,17.90
2015,06,26,00,05,17.90
2015,06,26,00,06,17.90
2015,06,26,00,07,17.80
2015,06,26,00,08,17.80
2015,06,26,00,09,17.80
2015,06,26,00,10,17.80
2015,06,26,00,11,17.80
2015,06,26,00,12,17.80
2015,06,26,00,13,17.80
2015,06,26,00,14,17.80
2015,06,26,00,15,17.80
2015,06,26,00,16,17.80
2015,06,26,00,17,17.80
2015,06,26,00,18,17.80
2015,06,26,00,19,17.80
2015,06,26,00,20,17.80
2015,06,26,00,21,17.80
2015,06,26,00,22,17.80
2015,06,26,00,23,17.80
2015,06,26,00,24,17.90
2015,06,26,00,25,17.90
2015,06,26,00,26,17.90
2015,06,26,00,27,17.90
2015,06,26,00,28,17.90
2015,06,26,00,29,18.00
2015,06,26,00,30,18.00
2015,06,26,00,31,18.10
2015,06,26,00,32,18.10
2015,06,26,00,33,18.10
2015,06,26,00,34,18.10
2015,06,26,00,35,18.10
2015,06,26,00,36,18.10
2015,06,26,00,37,18.20
2015,06,26,00,38,18.20
2015,06,26,00,39,18.20
2015,06,26,00,40,18.20
2015,06,26,00,41,18.20
2015,06,26,00,42,18.10
2015,06,26,00,43,18.10
2015,06,26,00,44,18.10
2015,06,26,00,45,18.20
2015,06,26,00,46,18.20
2015,06,26,00,47,18.20
2015,06,26,00,48,18.20
2015,06,26,00,49,18.20
2015,06,26,00,50,18.20
2015,06,26,00,51,18.10
2015,06,26,00,52,18.10
2015,06,26,00,53,18.10
2015,06,26,00,54,18.10
2015,06,26,00,55,18.10
2015,06,26,00,56,18.10
2015,06,26,00,57,18.10
2015,06,26,00,58,18.00
2015,06,26,00,59,18.00
2015,06,26,01,00,17.90
2015,06,26,01,01,17.90
2015,06,26,01,02,17.90
2015,06,26,01,03,17.90
2015,06,26,01,04,17.80
2015,06,26,01,05,17.80
2015,06,26,01,06,17.80
2015,06,26,01,07,17.70
2015,06,26,01,08,17.70
2015,06,26,01,09,17.70
2015,06,26,01,10,17.60
2015,06,26,01,11,17.60
2015,06,26,01,12,17.60
2015,06,26,01,13,17.60
2015,06,26,01,14,17.60
2015,06,26,01,15,17.50
2015,06,26,01,16,17.50
2015,06,26,01,17,17.50
2015,06,26,01,18,17.50
2015,06,26,01,19,17.40
2015,06,26,01,20,17.40
2015,06,26,01,21,17.40
2015,06,26,01,22,17.40
2015,06,26,01,23,17.40
2015,06,26,01,24,17.40
2015,06,26,01,25,17.40
2015,06,26,01,26,17.40
2015,06,26,01,27,17.40
2015,06,26,01,28,17.40
2015,06,26,01,29,17.30
2015,06,26,01,30,17.30
2015,06,26,01,31,17.30
2015,06,26,01,32,17.30
2015,06,26,01,33,17.30
2015,06,26,01,34,17.30
2015,06,26,01,35,17.30
2015,06,26,01,36,17.30
2015,06,26,01,37,17.30
2015,06,26,01,38,17.30
2015,06,26,01,39,17.30
2015,06,26,01,40,17.30
2015,06,26,01,41,17.30
2015,06,26,01,42,17.30
2015,06,26,01,43,17.30
2015,06,26,01,44,17.30
2015,06,26,01,45,17.30
2015,06,26,01,46,17.30
2015,06,26,01,47,17.30
2015,06,26,01,48,17.30
2015,06,26,01,49,17.30
2015,06,26,01,50,17.30
2015,06,26,01,51,17.30
2015,06,26,01,52,17.30
2015,06,26,01,53,17.30
2015,06,26,01,54,17.30
2015,06,26,01,55,17.30
2015,06,26,01,56,17.30
2015,06,26,01,57,17.30
2015,06,26,01,58,17.30
2015,06,26,01,59,17.30
2015,06,26,02,00,17.30
2015,06,26,02,01,17.30
2015,06,26,02,02,17.30
2015,06,26,02,03,17.30
2015,06,26,02,04,17.30
2015,06,26,02,05,17.30
2015,06,26,02,06,17.30
2015,06,26,02,07,17.30
2015,06,26,02,08,17.30
2015,06,26,02,09,17.30
2015,06,26,02,10,17.30
2015,06,26,02,11,17.20
2015,06,26,02,12,17.20
2015,06,26,02,13,17.20
2015,06,26,02,14,17.20
2015,06,26,02,15,17.20
2015,06,26,02,16,17.20
2015,06,26,02,17,17.20
2015,06,26,02,18,17.20
2015,06,26,02,19,17.10
2015,06,26,02,20,17.10
2015,06,26,02,21,17.10
2015,06,26,02,22,17.10
2015,06,26,02,23,17.10
2015,06,26,02,24,17.10
2015,06,26,02,25,17.10
2015,06,26,02,26,17.10
2015,06,26,02,27,17.10
2015,06,26,02,28,17.10
2015,06,26,02,29,17.10
2015,06,26,02,30,17.10
2015,06,26,02,31,17.10
2015,06,26,02,32,17.20
2015,06,26,02,33,17.20
2015,06,26,02,34,17.20
2015,06,26,02,35,17.20
2015,06,26,02,36,17.20
2015,06,26,02,37,17.20
2015,06,26,02,38,17.20
2015,06,26,02,39,17.20
2015,06,26,02,40,17.20
2015,06,26,02,41,17.20
2015,06,26,02,42,17.20
2015,06,26,02,43,17.20
2015,06,26,02,44,17.20
2015,06,26,02,45,17.20
2015,06,26,02,46,17.20
2015,06,26,02,47,17.20
2015,06,26,02,48,17.20
2015,06,26,02,49,17.20
2015,06,26,02,50,17.20
2015,06,26,02,51,17.20
2015,06,26,02,52,17.20
2015,06,26,02,53,17.20
2015,06,26,02,54,17.20
2015,06,26,02,55,17.20
2015,06,26,02,56,17.20
2015,06,26,02,57,17.20
2015,06,26,02,58,17.20
2015,06,26,02,59,17.20
2015,06,26,03,00,17.20
2015,06,26,03,01,17.10
2015,06,26,03,02,17.10
2015,06,26,03,03,17.10
2015,06,26,03,04,17.10
2015,06,26,03,05,17.10
2015,06,26,03,06,17.10
2015,06,26,03,07,17.10
2015,06,26,03,08,17.10
2015,06,26,03,09,17.10
2015,06,26,03,10,17.10
2015,06,26,03,11,17.20
2015,06,26,03,12,17.20
2015,06,26,03,13,17.20
2015,06,26,03,14,17.20
2015,06,26,03,15,17.20
2015,06,26,03,16,17.20
2015,06,26,03,17,17.20
2015,06,26,03,18,17.20
2015,06,26,03,19,17.30
2015,06,26,03,20,17.30
2015,06,26,03,21,17.30
2015,06,26,03,22,17.30
2015,06,26,03,23,17.30
2015,06,26,03,24,17.20
2015,06,26,03,25,17.20
2015,06,26,03,26,17.20
2015,06,26,03,27,17.20
2015,06,26,03,28,17.20
2015,06,26,03,29,17.20
2015,06,26,03,30,17.20
2015,06,26,03,31,17.20
2015,06,26,03,32,17.20
2015,06,26,03,33,17.20
2015,06,26,03,34,17.20
2015,06,26,03,35,17.20
2015,06,26,03,36,17.20
2015,06,26,03,37,17.20
2015,06,26,03,38,17.20
2015,06,26,03,39,17.20
2015,06,26,03,40,17.20
2015,06,26,03,41,17.20
2015,06,26,03,42,17.20
2015,06,26,03,43,17.20
2015,06,26,03,44,17.20
2015,06,26,03,45,17.20
2015,06,26,03,46,17.30
2015,06,26,03,47,17.30
2015,06,26,03,48,17.30
2015,06,26,03,49,17.30
2015,06,26,03,50,17.40
2015,06,26,03,51,17.40
2015,06,26,03,52,17.40
2015,06,26,03,53,17.40
2015,06,26,03,54,17.50
2015,06,26,03,55,17.50
2015,06,26,03,56,17.50
2015,06,26,03,57,17.50
2015,06,26,03,58,17.50
2015,06,26,03,59,17.50
2015,06,26,04,00,17.50
2015,06,26,04,01,17.60
2015,06,26,04,02,17.60
2015,06,26,04,03,17.60
2015,06,26,04,04,17.60
2015,06,26,04,05,17.60
2015,06,26,04,06,17.60
2015,06,26,04,07,17.60
2015,06,26,04,08,17.60
2015,06,26,04,09,17.60
2015,06,26,04,10,17.60
2015,06,26,04,11,17.60
2015,06,26,04,12,17.60
2015,06,26,04,13,17.60
2015,06,26,04,14,17.60
2015,06,26,04,15,17.60
2015,06,26,04,16,17.60
2015,06,26,04,17,17.70
2015,06,26,04,18,17.70
2015,06,26,04,19,17.70
2015,06,26,04,20,17.60
2015,06,26,04,21,17.60
2015,06,26,04,22,17.60
2015,06,26,04,23,17.60
2015,06,26,04,24,17.60
2015,06,26,04,25,17.60
2015,06,26,04,26,17.60
2015,06,26,04,27,17.60
2015,06,26,04,28,17.50
2015,06,26,04,29,17.50
2015,06,26,04,30,17.50
2015,06,26,04,31,17.50
2015,06,26,04,32,17.50
2015,06,26,04,33,17.40
2015,06,26,04,34,17.40
2015,06,26,04,35,17.40
2015,06,26,04,36,17.40
2015,06,26,04,37,17.40
2015,06,26,04,38,17.30
2015,06,26,04,39,17.30
2015,06,26,04,40,17.30
2015,06,26,04,41,17.30
2015,06,26,04,42,17.30
2015,06,26,04,43,17.30
2015,06,26,04,44,17.30
2015,06,26,04,45,17.20
2015,06,26,04,46,17.20
2015,06,26,04,47,17.20
2015,06,26,04,48,17.10
2015,06,26,04,49,17.10
2015,06,26,04,50,17.10
2015,06,26,04,51,17.00
2015,06,26,04,52,17.00
2015,06,26,04,53,17.00
2015,06,26,04,54,16.90
2015,06,26,04,55,16.90
2015,06,26,04,56,16.90
2015,06,26,04,57,16.80
2015,06,26,04,58,16.80
2015,06,26,04,59,16.80
2015,06,26,05,00,16.70
2015,06,26,05,01,16.70
2015,06,26,05,02,16.70
2015,06,26,05,03,16.70
2015,06,26,05,04,16.70
2015,06,26,05,05,16.70
2015,06,26,05,06,16.60
2015,06,26,05,07,16.60
2015,06,26,05,08,16.60
2015,06,26,05,09,16.50
2015,06,26,05,10,16.50
2015,06,26,05,11,16.50
2015,06,26,05,12,16.40
2015,06,26,05,13,16.40
2015,06,26,05,14,16.40
2015,06,26,05,15,16.40
2015,06,26,05,16,16.30
2015,06,26,05,17,16.30
2015,06,26,05,18,16.30
2015,06,26,05,19,16.30
2015,06,26,05,20,16.20
2015,06,26,05,21,16.20
2015,06,26,05,22,16.20
2015,06,26,05,23,16.20
2015,06,26,05,24,16.10
2015,06,26,05,25,16.10
2015,06,26,05,26,16.10
2015,06,26,05,27,16.10
2015,06,26,05,28,16.10
2015,06,26,05,29,16.00
2015,06,26,05,30,16.00
2015,06,26,05,31,16.00
2015,06,26,05,32,16.10
2015,06,26,05,33,16.00
2015,06,26,05,34,16.10
2015,06,26,05,35,16.10
2015,06,26,05,36,16.10
2015,06,26,05,37,16.10
2015,06,26,05,38,16.10
2015,06,26,05,39,16.10
2015,06,26,05,40,16.10
2015,06,26,05,41,16.10
2015,06,26,05,42,16.10
2015,06,26,05,43,16.10
2015,06,26,05,44,16.10
2015,06,26,05,45,16.10
2015,06,26,05,46,16.10
2015,06,26,05,47,16.00
2015,06,26,05,48,16.00
2015,06,26,05,49,16.10
2015,06,26,05,50,16.00
2015,06,26,05,51,16.10
2015,06,26,05,52,16.10
2015,06,26,05,53,16.10
2015,06,26,05,54,16.10
2015,06,26,05,55,16.10
2015,06,26,05,56,16.10
2015,06,26,05,57,16.10
2015,06,26,05,58,16.10
2015,06,26,05,59,16.10
2015,06,26,06,00,16.10
2015,06,26,06,01,16.10
2015,06,26,06,02,16.10
2015,06,26,06,03,16.10
2015,06,26,06,04,16.10
2015,06,26,06,05,16.10
2015,06,26,06,06,16.10
2015,06,26,06,07,16.10
2015,06,26,06,08,16.10
2015,06,26,06,09,16.10
2015,06,26,06,10,16.10
2015,06,26,06,11,16.10
2015,06,26,06,12,16.10
2015,06,26,06,13,16.10
2015,06,26,06,14,16.10
2015,06,26,06,15,16.20
2015,06,26,06,16,16.20
2015,06,26,06,17,16.20
2015,06,26,06,18,16.20
2015,06,26,06,19,16.20
2015,06,26,06,20,16.20
2015,06,26,06,21,16.20
2015,06,26,06,22,16.20
2015,06,26,06,23,16.20
2015,06,26,06,24,16.30
2015,06,26,06,25,16.30
2015,06,26,06,26,16.30
2015,06,26,06,27,16.30
2015,06,26,06,28,16.30
2015,06,26,06,29,16.30
2015,06,26,06,30,16.40
2015,06,26,06,31,16.40
2015,06,26,06,32,16.40
2015,06,26,06,33,16.40
2015,06,26,06,34,16.40
2015,06,26,06,35,16.40
2015,06,26,06,36,16.40
2015,06,26,06,37,16.40
2015,06,26,06,38,16.40
2015,06,26,06,39,16.50
2015,06,26,06,40,16.50
2015,06,26,06,41,16.50
2015,06,26,06,42,16.50
2015,06,26,06,43,16.50
2015,06,26,06,44,16.60
2015,06,26,06,45,16.60
2015,06,26,06,46,16.60
2015,06,26,06,47,16.60
2015,06,26,06,48,16.70
2015,06,26,06,49,16.70
2015,06,26,06,50,16.70
2015,06,26,06,51,16.70
2015,06,26,06,52,16.70
2015,06,26,06,53,16.80
2015,06,26,06,54,16.80
2015,06,26,06,55,16.80
2015,06,26,06,56,16.90
2015,06,26,06,57,16.90
2015,06,26,06,58,17.00
2015,06,26,06,59,17.00
2015,06,26,07,00,17.10
2015,06,26,07,01,17.20
2015,06,26,07,02,17.20
2015,06,26,07,03,17.20
2015,06,26,07,04,17.30
2015,06,26,07,05,17.30
2015,06,26,07,06,17.30
2015,06,26,07,07,17.40
2015,06,26,07,08,17.40
2015,06,26,07,09,17.40
2015,06,26,07,10,17.40
2015,06,26,07,11,17.50
2015,06,26,07,12,17.50
2015,06,26,07,13,17.60
2015,06,26,07,14,17.60
2015,06,26,07,15,17.60
2015,06,26,07,16,17.70
2015,06,26,07,17,17.70
2015,06,26,07,18,17.80
2015,06,26,07,19,17.90
2015,06,26,07,20,18.00
2015,06,26,07,21,18.00
2015,06,26,07,22,18.10
2015,06,26,07,23,18.20
2015,06,26,07,24,18.20
2015,06,26,07,25,18.30
2015,06,26,07,26,18.30
2015,06,26,07,27,18.30
2015,06,26,07,28,18.40
2015,06,26,07,29,18.40
2015,06,26,07,30,18.40
2015,06,26,07,31,18.40
2015,06,26,07,32,18.40
2015,06,26,07,33,18.50
2015,06,26,07,34,18.50
2015,06,26,07,35,18.50
2015,06,26,07,36,18.50
2015,06,26,07,37,18.50
2015,06,26,07,38,18.50
2015,06,26,07,39,18.50
2015,06,26,07,40,18.40
2015,06,26,07,41,18.40
2015,06,26,07,42,18.40
2015,06,26,07,43,18.40
2015,06,26,07,44,18.40
2015,06,26,07,45,18.40
2015,06,26,07,46,18.40
2015,06,26,07,47,18.40
2015,06,26,07,48,18.50
2015,06,26,07,49,18.50
2015,06,26,07,50,18.50
2015,06,26,07,51,18.60
2015,06,26,07,52,18.70
2015,06,26,07,53,18.70
2015,06,26,07,54,18.80
2015,06,26,07,55,18.80
2015,06,26,07,56,18.90
2015,06,26,07,57,18.90
2015,06,26,07,58,18.90
2015,06,26,07,59,18.90
2015,06,26,08,00,19.00
2015,06,26,08,01,19.00
2015,06,26,08,02,19.00
2015,06,26,08,03,19.00
2015,06,26,08,04,19.10
2015,06,26,08,05,19.10
2015,06,26,08,06,19.10
2015,06,26,08,07,19.20
2015,06,26,08,08,19.20
2015,06,26,08,09,19.20
2015,06,26,08,10,19.30
2015,06,26,08,11,19.30
2015,06,26,08,12,19.30
2015,06,26,08,13,19.30
2015,06,26,08,14,19.40
2015,06,26,08,15,19.40
2015,06,26,08,16,19.40
2015,06,26,08,17,19.50
2015,06,26,08,18,19.50
2015,06,26,08,19,19.60
2015,06,26,08,20,19.60
2015,06,26,08,21,19.60
2015,06,26,08,22,19.70
2015,06,26,08,23,19.80
2015,06,26,08,24,19.80
2015,06,26,08,25,19.90
2015,06,26,08,26,20.00
2015,06,26,08,27,20.10
2015,06,26,08,28,20.20
2015,06,26,08,29,20.20
2015,06,26,08,30,20.30
2015,06,26,08,31,20.30
2015,06,26,08,32,20.30
2015,06,26,08,33,20.30
2015,06,26,08,34,20.30
2015,06,26,08,35,20.40
2015,06,26,08,36,20.40
2015,06,26,08,37,20.40
2015,06,26,08,38,20.40
2015,06,26,08,39,20.40
2015,06,26,08,40,20.40
2015,06,26,08,41,20.40
2015,06,26,08,42,20.40
2015,06,26,08,43,20.40
2015,06,26,08,44,20.50
2015,06,26,08,45,20.50
2015,06,26,08,46,20.50
2015,06,26,08,47,20.50
2015,06,26,08,48,20.50
2015,06,26,08,49,20.50
2015,06,26,08,50,20.40
2015,06,26,08,51,20.40
2015,06,26,08,52,20.40
2015,06,26,08,53,20.40
2015,06,26,08,54,20.40
2015,06,26,08,55,20.40
2015,06,26,08,56,20.50
2015,06,26,08,57,20.50
2015,06,26,08,58,20.40
2015,06,26,08,59,20.40
2015,06,26,09,00,20.30
2015,06,26,09,01,20.30
2015,06,26,09,02,20.20
2015,06,26,09,03,20.20
2015,06,26,09,04,20.20
2015,06,26,09,05,20.20
2015,06,26,09,06,20.20
2015,06,26,09,07,20.20
2015,06,26,09,08,20.20
2015,06,26,09,09,20.20
2015,06,26,09,10,20.10
2015,06,26,09,11,20.00
2015,06,26,09,12,19.90
2015,06,26,09,13,19.80
2015,06,26,09,14,19.80
2015,06,26,09,15,19.70
2015,06,26,09,16,19.70
2015,06,26,09,17,19.80
2015,06,26,09,18,19.80
2015,06,26,09,19,19.80
2015,06,26,09,20,19.80
2015,06,26,09,21,19.90
2015,06,26,09,22,19.90
2015,06,26,09,23,20.00
2015,06,26,09,24,20.00
2015,06,26,09,25,20.00
2015,06,26,09,26,20.10
2015,06,26,09,27,20.10
2015,06,26,09,28,20.20
2015,06,26,09,29,20.20
2015,06,26,09,30,20.20
2015,06,26,09,31,20.30
2015,06,26,09,32,20.30
2015,06,26,09,33,20.30
2015,06,26,09,34,20.30
2015,06,26,09,35,20.30
2015,06,26,09,36,20.40
2015,06,26,09,37,20.40
2015,06,26,09,38,20.50
2015,06,26,09,39,20.50
2015,06,26,09,40,20.50
2015,06,26,09,41,20.40
2015,06,26,09,42,20.40
2015,06,26,09,43,20.40
2015,06,26,09,44,20.30
2015,06,26,09,45,20.40
2015,06,26,09,46,20.40
2015,06,26,09,47,20.40
2015,06,26,09,48,20.40
2015,06,26,09,49,20.40
2015,06,26,09,50,20.40
2015,06,26,09,51,20.40
2015,06,26,09,52,20.40
2015,06,26,09,53,20.40
2015,06,26,09,54,20.40
2015,06,26,09,55,20.50
2015,06,26,09,56,20.50
2015,06,26,09,57,20.50
2015,06,26,09,58,20.60
2015,06,26,09,59,20.60
2015,06,26,10,00,20.70
2015,06,26,10,01,20.70
2015,06,26,10,02,20.70
2015,06,26,10,03,20.70
2015,06,26,10,04,20.80
2015,06,26,10,05,20.80
2015,06,26,10,06,20.80
2015,06,26,10,07,20.80
2015,06,26,10,08,20.80
2015,06,26,10,09,20.70
2015,06,26,10,10,20.80
2015,06,26,10,11,20.80
2015,06,26,10,12,20.80
2015,06,26,10,13,20.80
2015,06,26,10,14,20.80
2015,06,26,10,15,20.90
2015,06,26,10,16,20.90
2015,06,26,10,17,21.00
2015,06,26,10,18,21.00
2015,06,26,10,19,21.10
2015,06,26,10,20,21.10
2015,06,26,10,21,21.10
2015,06,26,10,22,21.10
2015,06,26,10,23,21.20
2015,06,26,10,24,21.10
2015,06,26,10,25,21.10
2015,06,26,10,26,21.10
2015,06,26,10,27,21.20
2015,06,26,10,28,21.10
2015,06,26,10,29,21.10
2015,06,26,10,30,21.10
2015,06,26,10,31,21.10
2015,06,26,10,32,21.10
2015,06,26,10,33,21.10
2015,06,26,10,34,21.20
2015,06,26,10,35,21.20
2015,06,26,10,36,21.20
2015,06,26,10,37,21.20
2015,06,26,10,38,21.20
2015,06,26,10,39,21.20
2015,06,26,10,40,21.20
2015,06,26,10,41,21.20
2015,06,26,10,42,21.20
2015,06,26,10,43,21.20
2015,06,26,10,44,21.20
2015,06,26,10,45,21.20
2015,06,26,10,46,21.30
2015,06,26,10,47,21.30
2015,06,26,10,48,21.30
2015,06,26,10,49,21.40
2015,06,26,10,50,21.40
2015,06,26,10,51,21.40
2015,06,26,10,52,21.50
2015,06,26,10,53,21.50
2015,06,26,10,54,21.60
2015,06,26,10,55,21.60
2015,06,26,10,56,21.60
2015,06,26,10,57,21.60
2015,06,26,10,58,21.60
2015,06,26,10,59,21.60
2015,06,26,11,00,21.60
2015,06,26,11,01,21.60
2015,06,26,11,02,21.60
2015,06,26,11,03,21.60
2015,06,26,11,04,21.70
2015,06,26,11,05,21.70
2015,06,26,11,06,21.60
2015,06,26,11,07,21.60
2015,06,26,11,08,21.50
2015,06,26,11,09,21.40
2015,06,26,11,10,21.30
2015,06,26,11,11,21.20
2015,06,26,11,12,21.20
2015,06,26,11,13,21.20
2015,06,26,11,14,21.20
2015,06,26,11,15,21.10
2015,06,26,11,16,21.20
2015,06,26,11,17,21.20
2015,06,26,11,18,21.30
2015,06,26,11,19,21.30
2015,06,26,11,20,21.20
2015,06,26,11,21,21.20
2015,06,26,11,22,21.20
2015,06,26,11,23,21.20
2015,06,26,11,24,21.20
2015,06,26,11,25,21.20
2015,06,26,11,26,21.20
2015,06,26,11,27,21.20
2015,06,26,11,28,21.10
2015,06,26,11,29,21.20
2015,06,26,11,30,21.20
2015,06,26,11,31,21.20
2015,06,26,11,32,21.20
2015,06,26,11,33,21.20
2015,06,26,11,34,21.20
2015,06,26,11,35,21.20
2015,06,26,11,36,21.20
2015,06,26,11,37,21.20
2015,06,26,11,38,21.20
2015,06,26,11,39,21.20
2015,06,26,11,40,21.20
2015,06,26,11,41,21.20
2015,06,26,11,42,21.30
2015,06,26,11,43,21.30
2015,06,26,11,44,21.40
2015,06,26,11,45,21.50
2015,06,26,11,46,21.60
2015,06,26,11,47,21.70
2015,06,26,11,48,21.60
2015,06,26,11,49,21.60
2015,06,26,11,50,21.50
2015,06,26,11,51,21.50
2015,06,26,11,52,21.50
2015,06,26,11,53,21.40
2015,06,26,11,54,21.40
2015,06,26,11,55,21.30
2015,06,26,11,56,21.30
2015,06,26,11,57,21.30
2015,06,26,11,58,21.30
2015,06,26,11,59,21.30
2015,06,26,12,00,21.20
2015,06,26,12,01,21.30
2015,06,26,12,02,21.30
2015,06,26,12,03,21.40
2015,06,26,12,04,21.50
2015,06,26,12,05,21.60
2015,06,26,12,06,21.60
2015,06,26,12,07,21.70
2015,06,26,12,08,21.80
2015,06,26,12,09,21.90
2015,06,26,12,10,21.90
2015,06,26,12,11,21.90
2015,06,26,12,12,21.90
2015,06,26,12,13,21.90
2015,06,26,12,14,21.90
2015,06,26,12,15,21.90
2015,06,26,12,16,21.90
2015,06,26,12,17,21.80
2015,06,26,12,18,21.70
2015,06,26,12,19,21.60
2015,06,26,12,20,21.60
2015,06,26,12,21,21.60
2015,06,26,12,22,21.60
2015,06,26,12,23,21.40
2015,06,26,12,24,21.40
2015,06,26,12,25,21.40
2015,06,26,12,26,21.40
2015,06,26,12,27,21.40
2015,06,26,12,28,21.40
2015,06,26,12,29,21.40
2015,06,26,12,30,21.40
2015,06,26,12,31,21.40
2015,06,26,12,32,21.50
2015,06,26,12,33,21.50
2015,06,26,12,34,21.40
2015,06,26,12,35,21.40
2015,06,26,12,36,21.30
2015,06,26,12,37,21.30
2015,06,26,12,38,21.30
2015,06,26,12,39,21.30
2015,06,26,12,40,21.30
2015,06,26,12,41,21.30
2015,06,26,12,42,21.30
2015,06,26,12,43,21.30
2015,06,26,12,44,21.30
2015,06,26,12,45,21.30
2015,06,26,12,46,21.30
2015,06,26,12,47,21.30
2015,06,26,12,48,21.20
2015,06,26,12,49,21.20
2015,06,26,12,50,21.20
2015,06,26,12,51,21.20
2015,06,26,12,52,21.20
2015,06,26,12,53,21.20
2015,06,26,12,54,21.40
2015,06,26,12,55,21.40
2015,06,26,12,56,21.40
2015,06,26,12,57,21.40
2015,06,26,12,58,21.40
2015,06,26,12,59,21.40
2015,06,26,13,00,21.30
2015,06,26,13,01,21.30
2015,06,26,13,02,21.30
2015,06,26,13,03,21.30
2015,06,26,13,04,21.30
2015,06,26,13,05,21.30
2015,06,26,13,06,21.20
2015,06,26,13,07,21.20
2015,06,26,13,08,21.30
2015,06,26,13,09,21.40
2015,06,26,13,10,21.50
2015,06,26,13,11,21.60
2015,06,26,13,12,21.60
2015,06,26,13,13,21.70
2015,06,26,13,14,21.70
2015,06,26,13,15,21.70
2015,06,26,13,16,21.70
2015,06,26,13,17,21.70
2015,06,26,13,18,21.70
2015,06,26,13,19,21.80
2015,06,26,13,20,21.80
2015,06,26,13,21,21.80
2015,06,26,13,22,21.80
2015,06,26,13,23,21.90
2015,06,26,13,24,22.00
2015,06,26,13,25,22.00
2015,06,26,13,26,22.00
2015,06,26,13,27,22.00
2015,06,26,13,28,22.00
2015,06,26,13,29,22.00
2015,06,26,13,30,22.10
2015,06,26,13,31,22.20
2015,06,26,13,32,22.30
2015,06,26,13,33,22.20
2015,06,26,13,34,22.30
2015,06,26,13,35,22.30
2015,06,26,13,36,22.30
2015,06,26,13,37,22.30
2015,06,26,13,38,22.30
2015,06,26,13,39,22.40
2015,06,26,13,40,22.50
2015,06,26,13,41,22.50
2015,06,26,13,42,22.60
2015,06,26,13,43,22.80
2015,06,26,13,44,22.90
2015,06,26,13,45,22.90
2015,06,26,13,46,22.90
2015,06,26,13,47,22.80
2015,06,26,13,48,22.70
2015,06,26,13,49,22.70
2015,06,26,13,50,22.50
2015,06,26,13,51,22.50
2015,06,26,13,52,22.40
2015,06,26,13,53,22.30
2015,06,26,13,54,22.30
2015,06,26,13,55,22.30
2015,06,26,13,56,22.30
2015,06,26,13,57,22.30
2015,06,26,13,58,22.30
2015,06,26,13,59,22.30
2015,06,26,14,00,22.30
2015,06,26,14,01,22.30
2015,06,26,14,02,22.40
2015,06,26,14,03,22.50
2015,06,26,14,04,22.60
2015,06,26,14,05,22.60
2015,06,26,14,06,22.60
2015,06,26,14,07,22.60
2015,06,26,14,08,22.60
2015,06,26,14,09,22.60
2015,06,26,14,10,22.60
2015,06,26,14,11,22.60
2015,06,26,14,12,22.70
2015,06,26,14,13,22.80
2015,06,26,14,14,22.90
2015,06,26,14,15,23.10
2015,06,26,14,16,23.20
2015,06,26,14,17,23.30
2015,06,26,14,18,23.30
2015,06,26,14,19,23.20
2015,06,26,14,20,23.10
2015,06,26,14,21,23.10
2015,06,26,14,22,23.00
2015,06,26,14,23,23.00
2015,06,26,14,24,22.90
2015,06,26,14,25,22.80
2015,06,26,14,26,22.80
2015,06,26,14,27,22.80
2015,06,26,14,28,22.90
2015,06,26,14,29,23.00
2015,06,26,14,30,23.10
2015,06,26,14,31,23.30
2015,06,26,14,32,23.30
2015,06,26,14,33,23.30
2015,06,26,14,34,23.20
2015,06,26,14,35,23.20
2015,06,26,14,36,23.10
2015,06,26,14,37,23.10
2015,06,26,14,38,23.10
2015,06,26,14,39,23.10
2015,06,26,14,40,23.10
2015,06,26,14,41,23.20
2015,06,26,14,42,23.30
2015,06,26,14,43,23.30
2015,06,26,14,44,23.30
2015,06,26,14,45,23.20
2015,06,26,14,46,23.20
2015,06,26,14,47,23.20
2015,06,26,14,48,23.20
2015,06,26,14,49,23.20
2015,06,26,14,50,23.20
2015,06,26,14,51,23.20
2015,06,26,14,52,23.30
2015,06,26,14,53,23.50
2015,06,26,14,54,23.60
2015,06,26,14,55,23.80
2015,06,26,14,56,23.90
2015,06,26,14,57,23.90
2015,06,26,14,58,23.80
2015,06,26,14,59,23.80
2015,06,26,15,00,23.70
2015,06,26,15,01,23.60
2015,06,26,15,02,23.50
2015,06,26,15,03,23.50
2015,06,26,15,04,23.40
2015,06,26,15,05,23.30
2015,06,26,15,06,23.30
2015,06,26,15,07,23.40
2015,06,26,15,08,23.40
2015,06,26,15,09,23.40
2015,06,26,15,10,23.50
2015,06,26,15,11,23.50
2015,06,26,15,12,23.60
2015,06,26,15,13,23.60
2015,06,26,15,14,23.60
2015,06,26,15,15,23.60
2015,06,26,15,16,23.50
2015,06,26,15,17,23.40
2015,06,26,15,18,23.30
2015,06,26,15,19,23.30
2015,06,26,15,20,23.30
2015,06,26,15,21,23.30
2015,06,26,15,22,23.20
2015,06,26,15,23,23.10
2015,06,26,15,24,23.10
2015,06,26,15,25,23.10
2015,06,26,15,26,23.10
2015,06,26,15,27,23.20
2015,06,26,15,28,23.30
2015,06,26,15,29,23.50
2015,06,26,15,30,23.70
2015,06,26,15,31,23.80
2015,06,26,15,32,23.90
2015,06,26,15,33,23.90
2015,06,26,15,34,24.00
2015,06,26,15,35,23.90
2015,06,26,15,36,23.90
2015,06,26,15,37,24.00
2015,06,26,15,38,24.00
2015,06,26,15,39,24.00
2015,06,26,15,40,24.00
2015,06,26,15,41,24.00
2015,06,26,15,42,23.90
2015,06,26,15,43,23.80
2015,06,26,15,44,23.80
2015,06,26,15,45,23.70
2015,06,26,15,46,23.60
2015,06,26,15,47,23.60
2015,06,26,15,48,23.60
2015,06,26,15,49,23.60
2015,06,26,15,50,23.60
2015,06,26,15,51,23.60
2015,06,26,15,52,23.60
2015,06,26,15,53,23.70
2015,06,26,15,54,23.70
2015,06,26,15,55,23.60
2015,06,26,15,56,23.50
2015,06,26,15,57,23.40
2015,06,26,15,58,23.30
2015,06,26,15,59,23.20
2015,06,26,16,00,23.10
2015,06,26,16,01,23.20
2015,06,26,16,02,23.20
2015,06,26,16,03,23.20
2015,06,26,16,04,23.20
2015,06,26,16,05,23.20
2015,06,26,16,06,23.30
2015,06,26,16,07,23.40
2015,06,26,16,08,23.60
2015,06,26,16,09,23.70
2015,06,26,16,10,23.80
2015,06,26,16,11,24.00
2015,06,26,16,12,24.10
2015,06,26,16,13,24.20
2015,06,26,16,14,24.20
2015,06,26,16,15,24.20
2015,06,26,16,16,24.20
2015,06,26,16,17,24.30
2015,06,26,16,18,24.30
2015,06,26,16,19,24.30
2015,06,26,16,20,24.30
2015,06,26,16,21,24.40
2015,06,26,16,22,24.40
2015,06,26,16,23,24.50
2015,06,26,16,24,24.60
2015,06,26,16,25,24.50
2015,06,26,16,26,24.60
2015,06,26,16,27,24.60
2015,06,26,16,28,24.70
2015,06,26,16,29,24.80
2015,06,26,16,30,25.00
2015,06,26,16,31,25.10
2015,06,26,16,32,25.30
2015,06,26,16,33,25.40
2015,06,26,16,34,25.60
2015,06,26,16,35,25.60
2015,06,26,16,36,25.70
2015,06,26,16,37,25.70
2015,06,26,16,38,25.70
2015,06,26,16,39,25.60
2015,06,26,16,40,25.50
2015,06,26,16,41,25.40
2015,06,26,16,42,25.30
2015,06,26,16,43,25.20
2015,06,26,16,44,25.20
2015,06,26,16,45,25.10
2015,06,26,16,46,25.00
2015,06,26,16,47,24.90
2015,06,26,16,48,24.90
2015,06,26,16,49,24.90
2015,06,26,16,50,24.90
2015,06,26,16,51,24.90
2015,06,26,16,52,24.90
2015,06,26,16,53,24.90
2015,06,26,16,54,24.90
2015,06,26,16,55,25.00
2015,06,26,16,56,25.10
2015,06,26,16,57,25.30
2015,06,26,16,58,25.40
2015,06,26,16,59,25.40
2015,06,26,17,00,25.50
2015,06,26,17,01,25.60
2015,06,26,17,02,25.70
2015,06,26,17,03,25.70
2015,06,26,17,04,25.80
2015,06,26,17,05,25.90
2015,06,26,17,06,25.90
2015,06,26,17,07,25.90
2015,06,26,17,08,25.90
2015,06,26,17,09,25.90
2015,06,26,17,10,25.90
2015,06,26,17,11,25.80
2015,06,26,17,12,25.80
2015,06,26,17,13,25.80
2015,06,26,17,14,25.70
2015,06,26,17,15,25.60
2015,06,26,17,16,25.50
2015,06,26,17,17,25.30
2015,06,26,17,18,25.30
2015,06,26,17,19,25.30